Location: Arcola
(40.9259°N, 74.0893°W)
Time: 04:25:41
(UTC+00:00)

Daily predictions for brighter satellites

Satellite Brightness Start Highest point End
(mag) Time Altitude Azimuth Time Altitude Azimuth Time Altitude Azimuth
OAO 2 Rocket 4.1 00:03:31 10° WSW 00:07:50 37° S 00:07:50 37° S
SeaSat 1 2.5 00:11:24 60° NNE 00:11:24 60° NNE 00:15:45 10° NNW
Cosmos 2219 3.8 00:07:27 10° NNW 00:13:04 57° WSW 00:17:55 14° S
YAOGAN 1 3.9 00:11:06 10° SSW 00:15:08 39° W 00:19:12 10° NNW
Cosmos 883 Rocket 4.3 00:12:37 10° S 00:18:48 80° E 00:24:57 10° N
S3M 4.4 00:15:24 10° SSW 00:21:24 60° W 00:27:29 10° N
Cosmos 2082 3.7 00:17:26 10° NNW 00:22:40 69° NNE 00:22:40 69° NNE
CZ-2C R/B 4.3 00:19:04 10° S 00:24:35 44° W 00:30:03 10° NNW
SL-4 R/B 4.4 00:23:10 10° NNW 00:24:00 14° NNW 00:24:00 14° NNW
Cosmos 968 Rocket 4.0 00:21:50 10° NNW 00:26:57 57° WSW 00:28:17 43° SSW
Cosmos 1346 Rocket 4.3 00:25:38 10° NNW 00:28:23 34° WNW 00:28:23 34° WNW
Cosmos 2369 3.8 00:26:11 10° SSW 00:31:54 76° WNW 00:32:24 70° NNW
Atlas Centaur 2 3.7 00:27:10 10° WSW 00:34:51 38° S 00:35:20 38° SSE
ARGOS 3.5 00:36:35 57° SW 00:37:19 63° W 00:42:43 10° NNW
NOSS 3-3 (A) 4.2 00:34:58 10° SW 00:40:40 61° NW 00:41:51 51° N
NOSS 3-3 (C) 4.2 00:35:03 10° SW 00:40:48 61° NW 00:41:57 52° N
USA 215 3.8 00:42:31 43° NNE 00:42:31 43° NNE 00:48:01 10° NW
Cosmos 2227 Rocket 3.5 00:44:11 10° NW 00:49:20 37° WSW 00:51:13 29° SW
ATLAS 2AS CENTAUR R/B 3.8 00:49:13 10° NNW 00:54:14 34° N 00:54:14 34° N
Cosmos 2263 Rocket 4.3 00:53:22 10° N 00:54:45 17° N 00:54:45 17° N
Cosmos 1697 Rocket 4.0 01:00:15 10° WSW 01:05:21 35° WNW 01:06:00 34° NW
Lacrosse 5 4.5 01:02:57 10° NNW 01:03:38 12° NNW 01:03:38 12° NNW
H-2A R/B 4.2 01:04:05 10° SSW 01:08:24 24° W 01:12:45 10° NW
H-2A R/B (2) 4.2 00:30:34 10° WSW 01:08:25 44° SSW 01:09:35 42° S
CZ-4C R/B 4.4 01:22:18 10° NNW 01:25:16 24° N 01:25:16 24° N
ADEOS Rocket 4.2 08:08:57 10° SE 08:13:47 33° ENE 08:18:41 10° N
DELTA 2 R/B (1) 4.2 08:44:03 50° SE 08:44:03 50° SE 08:48:20 10° ESE
NOSS 3-2 (C) 3.5 08:44:11 63° N 08:44:11 63° N 08:49:37 10° NNE
ISS -0.7 08:46:05 16° ENE 08:46:05 16° ENE 08:46:55 10° ENE
Lacrosse 4 Rocket 3.0 08:57:05 28° NNE 08:57:05 28° NNE 08:59:04 10° NNE
ALOS 4.1 08:51:26 10° NE 08:55:31 30° E 08:59:35 10° SSE
CENTAUR R/B 2.4 08:57:17 66° NW 08:57:17 66° NW 09:04:04 10° NNE
CZ-2C R/B 2.3 09:00:41 10° NNE 09:05:24 79° N 09:05:24 79° N
Cosmos 1626 4.0 09:03:31 10° SSE 09:06:45 30° E 09:10:02 10° NNE
ADEOS 4.4 09:07:23 10° NNE 09:12:28 51° E 09:17:31 10° S
Cosmos 1833 Rocket 2.9 09:08:56 22° S 09:12:38 69° ESE 09:18:16 10° NNE
PAYLOAD A 4.0 09:07:52 10° N 09:12:41 65° NW 09:12:41 65° NW
In-Cosmos 22 4.2 09:14:21 54° NW 09:14:21 54° NW 09:18:59 10° N
Nadezhda 4 Rocket 4.2 09:08:44 10° S 09:14:46 67° E 09:20:52 10° NNE
Cosmos 2180 Rocket 4.3 09:09:02 10° N 09:15:19 84° W 09:21:30 10° S
Cosmos 1269 Rocket 3.9 09:17:08 62° WNW 09:17:09 62° WNW 09:22:25 10° NNE
Cosmos 1302 Rocket 4.0 09:13:14 17° NNW 09:17:22 82° ENE 09:22:39 10° SSE
Geosat 4.2 09:16:51 10° SE 09:21:50 71° ENE 09:26:27 12° NNW
Lacrosse 5 rocket 1.3 09:22:55 64° NE 09:22:55 64° NE 09:26:08 10° NE
H-2A R/B 4.2 09:20:02 10° S 09:20:50 15° S 09:20:50 15° S
Cosmos 2344 4.1 09:27:00 33° WNW 09:28:44 37° NW 09:36:08 10° NNE
Meteor 1-31 Rocket 3.9 09:25:09 10° NNE 09:28:57 45° E 09:32:43 10° S
USA 238 DEB 4.4 09:29:27 31° NW 09:30:21 33° NW 09:36:28 10° NNE
USA 238 4.4 09:29:31 32° WNW 09:30:26 33° NW 09:36:35 10° NNE
Cosmos 2082 Rocket 2.9 09:26:14 10° S 09:31:41 55° ESE 09:37:09 10° NNE
Meteor 1-16 Rocket 4.1 09:27:58 10° NNW 09:33:07 53° W 09:38:17 10° S
NOSS 3-2 (A) 4.5 09:34:08 26° NW 09:34:43 26° NW 09:40:06 10° NNE
SJ-6F 4.2 09:32:08 10° N 09:36:14 75° WNW 09:39:20 17° SSW
CZ-4B R/B 1.5 09:35:25 10° SSE 09:38:53 76° ENE 09:42:20 10° N
Cosmos 1656 3.7 09:36:09 19° NW 09:40:11 59° WSW 09:45:45 10° S
CZ-4B R/B 4.2 09:38:02 10° NNE 09:42:15 68° E 09:46:14 10° S
ATLAS 3B R/B 2.6 09:36:53 10° SSW 09:43:26 83° ESE 09:50:07 10° NE
Meteor 2-5 Rocket 3.7 09:38:20 10° S 09:43:59 86° E 09:49:49 10° N
deb Chang Zheng 4 3.5 09:40:35 10° NNE 09:44:51 86° E 09:49:07 10° SSW
Cosmos 2279 Rocket 4.5 09:45:03 10° NNW 09:50:31 34° W 09:55:58 10° SSW
COSMOS 2406 3.5 09:48:10 26° WSW 09:50:58 45° WNW 09:56:25 10° NNE
Cosmos 1892 Rocket 4.1 09:49:36 10° S 09:53:52 61° E 09:58:10 10° NNE
Cosmos 2084 4.5 09:51:24 10° SSW 09:55:31 46° ESE 09:59:43 10° NE
Cosmos 1400 Rocket 3.7 09:52:30 10° N 09:56:21 50° ENE 10:00:08 10° SSE
Cosmos 1992 Rocket 4.2 09:52:49 10° NNW 09:58:02 75° ENE 10:03:14 10° SSE
Cosmos 1697 Rocket 2.6 09:53:15 10° NNW 09:58:54 77° WSW 10:04:32 10° SSE
ADEOS Rocket 3.4 09:54:32 10° SSW 09:59:20 31° W 10:04:12 10° NW
ARGOS Delta rocket 4.2 09:56:51 10° N 10:02:17 88° E 10:07:47 10° SSW
ERS-2 2.7 10:00:39 10° SSW 10:03:59 34° W 10:05:48 21° NW
BREEZE-M DEB (TANK) 2.2 10:04:39 32° WSW 10:05:08 35° SW 10:07:11 10° SSE
Cosmos 44 Rocket 3.9 10:04:23 19° NW 10:07:37 40° WSW 10:12:25 10° S
Cosmos 1908 4.4 10:08:35 23° WSW 10:08:35 23° WSW 10:11:07 10° SW
SKYMED 2 3.7 10:03:47 10° SSE 10:08:06 77° ENE 10:12:28 10° N
SL-19 R/B 3.4 10:06:10 10° N 10:08:56 56° WNW 10:11:46 10° SSW
SAR-Lupe-4 3.5 10:05:44 10° S 10:09:17 63° WSW 10:12:51 10° NNW
SJ-12 3.8 10:07:01 10° N 10:11:09 85° WNW 10:15:14 10° SSW
FENGYUN 3A 3.8 10:06:42 10° N 10:11:56 50° WNW 10:17:09 10° SW
Cosmos 2026 Rocket 4.1 10:05:49 10° S 10:12:11 87° E 10:18:36 10° N
Abrixas rocket 3.4 10:11:30 17° NNW 10:13:00 27° NNE 10:15:30 10° E
Cosmos 1461 3.3 10:10:10 14° SW 10:13:56 49° NW 10:18:30 10° NNE
TELKOM 3 4.1 10:12:57 26° W 10:14:31 51° NNW 10:18:19 10° NE
Cosmos 2195 Rocket 4.4 10:10:34 10° SSW 10:16:47 74° W 10:22:58 10° N
Cosmos 1689 Rocket 1.9 10:14:34 10° S 10:17:29 83° WSW 10:20:26 10° NNW
SL-14 R/B 3.7 10:13:49 10° SSW 10:17:33 39° WNW 10:21:20 10° N
Cosmos 2251 Rocket 3.5 10:12:20 10° SSW 10:17:40 66° WNW 10:23:00 10° NNE
ISS -2.8 10:19:03 21° WNW 10:20:38 31° NNW 10:23:41 10° NE
Cosmos 1980 Rocket 2.2 10:15:14 10° NNW 10:20:51 85° ENE 10:26:28 10° SSE
USA 290 2.5 10:19:46 10° SW 10:22:50 42° WNW 10:25:57 10° N
Cosmos 614 Rocket 4.2 10:21:35 10° SSW 10:26:44 76° ESE 10:31:52 10° NNE
SAR-Lupe-1 4.5 10:23:34 10° S 10:26:56 40° W 10:30:20 10° NNW
Cosmos 1300 3.0 10:24:17 10° NNW 10:27:56 44° W 10:31:33 10° SSW
PSLV R/B 3.9 10:27:44 10° S 10:31:54 66° WSW 10:36:06 10° NNW
Cosmos 2360 4.4 10:26:53 10° NNW 10:32:23 52° WSW 10:37:51 10° S
ALOS 3.1 10:28:53 10° N 10:32:50 28° WNW 10:36:46 10° SW
Lacrosse 4 Rocket 3.4 10:33:26 10° WNW 10:34:14 11° NW 10:35:24 10° NNW
Cosmos 1726 Rocket 4.0 10:32:59 10° NNW 10:37:10 41° W 10:41:20 10° SSW
Cosmos 1484 Rocket 4.2 10:36:17 10° NNW 10:38:56 18° WNW 10:41:34 10° WSW
Cosmos 1626 3.7 10:39:49 10° WSW 10:42:05 15° WNW 10:44:21 10° NW
CZ-2C R/B 4.3 10:42:03 10° NW 10:43:03 11° WNW 10:44:03 10° WNW
Cosmos 2278 3.8 10:42:06 10° NNW 10:47:38 55° WSW 10:53:07 10° S
Aureole 3 4.0 10:43:39 10° NNW 10:47:43 49° W 10:52:50 10° SSW
H-2A R/B 2.7 10:44:28 10° N 10:48:17 81° WNW 10:52:07 10° SSW
Cosmos 2228 4.2 10:45:39 10° NW 10:49:01 22° W 10:52:23 10° SW
CZ-4B R/B 3.5 10:45:23 10° N 10:49:04 35° WNW 10:52:55 10° SW
CENTAUR R/B 4.1 10:44:56 10° WNW 10:49:25 19° NNW 10:54:23 10° NNE
Cosmos 2098 Rocket 3.9 10:43:13 10° S 10:49:41 83° E 10:54:53 10° N
Cosmos 2322 Rocket 3.8 10:46:19 10° N 10:51:34 36° ENE 10:56:43 10° SE
CZ-3 R/B 3.4 10:48:51 10° WSW 11:04:39 37° SSW 11:10:05 10° SE
